SCP
0 2 0 0 0 1 1 1 2 2 2 2 2 2 3 3 2 1 1 1 1 1
0 0 0 0 0 0 0 0 0 0 0 0 0 1 1 1 1 1 2 1 1 2
0 0 0 0 0 0 0 0 0 0 0 0 0 0 0 0 0 1 1 1 1 1
0 0 0 0 0 0 0 0 0 0 0 0 0 0 0 0 0 0 0 0 1 1
0 0 0 0 0 0 0 0 0 0 0 0 0 0 0 0 0 0 0 0 0 0
0 0 0 0 0 0 0 0 0 0 0 0 0 0 0 0 0 0 0 0 0 0
0 0 0 0 0 0 0 0 0 0 0 0 0 0 0 0 0 0 0 0 0 0
0 0 0 0 0 0 0 0 0 0 0 0 0 0 0 0 0 0 0 0 0 0
0 0 0 0 0 0 0 0 0 0 0 0 0 0 0 0 0 0 0 0 0 0
0 0 0 0 0 0 0 0 0 0 0 0 0 0 0 0 0 0 0 0 0 0
0 0 0 0 0 0 0 0 0 0 0 0 0 0 0 0 0 0 0 0 0 0
0 0 0 0 0 0 0 0 0 0 0 0 0 0 0 0 0 0 0 0 0 0
0 0 0 0 0 0 0 0 0 0 0 0 0 0 0 0 0 0 0 0 0 0
0 0 0 0 0 0 0 0 0 0 0 0 0 0 0 0 0 0 0 0 0 0
Wind_Speed_500mb
40 27 30 38 28 30 33 28 18 30 35 37 41 44 50 55 59 62 65 70 72 78
24 24 26 24 32 33 38 44 46 42 45 49 54 59 64 67 70 73 72 73 73 75
16 20 21 22 26 29 34 38 43 49 52 56 58 61 65 70 73 68 68 74 78 78
6 11 16 21 27 33 38 44 48 52 56 61 62 61 64 68 71 75 78 78 80 86
11 19 25 30 35 40 46 52 55 60 63 64 65 62 63 66 66 68 70 73 76 83
22 26 32 39 42 47 51 52 51 48 49 50 50 52 54 60 62 62 64 65 69 74
28 31 32 37 36 36 43 53 59 59 60 59 57 60 64 66 69 72 74 74 70 67
29 30 30 36 43 51 55 56 56 58 61 62 63 56 56 64 72 79 85 84 83 81
31 29 34 46 50 48 53 58 59 61 63 63 64 65 67 69 75 78 88 91 85 84
29 33 35 40 46 49 53 55 56 56 53 57 63 66 69 62 63 69 76 76 76 82
26 29 31 36 41 50 52 51 46 51 55 61 69 71 62 60 63 75 71 69 71 68
26 29 34 39 45 44 47 50 50 54 62 73 78 66 66 66 71 72 66 65 64 62
28 32 35 40 38 45 49 60 65 66 80 71 75 63 62 64 71 68 62 59 58 59
30 35 36 32 38 49 54 73 55 59 63 67 64 62 56 55 55 57 59 61 59 61
Wind_Direction_500mb
209 191 208 204 195 199 204 208 209 204 217 226 236 246 255 261 267 268 267 267 264 266
190 192 203 211 220 227 229 231 243 255 262 262 263 263 264 265 265 262 263 265 265 263
198 215 224 234 246 261 265 269 272 276 276 277 276 273 272 273 273 271 271 270 268 265
267 280 275 280 281 283 286 289 289 288 287 286 285 282 280 279 279 279 279 272 268 271
305 299 300 299 297 299 299 296 295 293 291 289 287 286 283 284 282 280 278 278 276 272
306 300 306 305 303 304 303 301 296 291 286 285 284 283 282 281 281 283 281 281 279 277
313 318 315 310 311 298 287 290 294 293 290 287 281 279 273 275 276 272 274 272 270 274
323 323 319 301 295 297 298 295 294 294 295 293 292 292 283 276 276 278 278 276 272 270
326 313 300 303 306 306 307 306 306 306 302 304 303 301 300 298 297 290 284 285 285 282
315 320 321 316 322 319 312 312 313 314 312 314 317 309 304 301 296 297 294 291 290 288
319 320 323 320 311 311 315 317 320 319 319 316 315 310 306 304 300 299 297 295 295 292
318 323 314 318 317 327 333 330 324 321 318 315 310 308 307 304 302 299 296 299 298 291
321 311 317 318 327 331 332 326 319 306 305 311 314 312 317 295 288 299 293 295 301 295
322 325 325 324 335 332 323 318 319 314 315 312 318 308 308 310 301 298 294 293 294 294
Wind_Speed_850mb
40 27 30 38 28 30 33 28 18 30 35 37 41 44 50 55 59 62 65 70 72 78
24 24 26 24 32 33 38 44 46 42 45 49 54 59 64 67 70 73 72 73 73 75
16 20 21 22 26 29 34 38 43 49 52 56 58 61 65 70 73 68 68 74 78 78
6 11 16 21 27 33 38 44 48 52 56 61 62 61 64 68 71 75 78 78 80 86
11 19 25 30 35 40 46 52 55 60 63 64 65 62 63 66 66 68 70 73 76 83
22 26 32 39 42 47 51 52 51 48 49 50 50 52 54 60 62 62 64 65 69 74
28 31 32 37 36 36 43 53 59 59 60 59 57 60 64 66 69 72 74 74 70 67
29 30 30 36 43 51 55 56 56 58 61 62 63 56 56 64 72 79 85 84 83 81
31 29 34 46 50 48 53 58 59 61 63 63 64 65 67 69 75 78 88 91 85 84
29 33 35 40 46 49 53 55 56 56 53 57 63 66 69 62 63 69 76 76 76 82
26 29 31 36 41 50 52 51 46 51 55 61 69 71 62 60 63 75 71 69 71 68
26 29 34 39 45 44 47 50 50 54 62 73 78 66 66 66 71 72 66 65 64 62
28 32 35 40 38 45 49 60 65 66 80 71 75 63 62 64 71 68 62 59 58 59
30 35 36 32 38 49 54 73 55 59 63 67 64 62 56 55 55 57 59 61 59 61
Wind_Direction_850mb
209 191 208 204 195 199 204 208 209 204 217 226 236 246 255 261 267 268 267 267 264 266
190 192 203 211 220 227 229 231 243 255 262 262 263 263 264 265 265 262 263 265 265 263
198 215 224 234 246 261 265 269 272 276 276 277 276 273 272 273 273 271 271 270 268 265
267 280 275 280 281 283 286 289 289 288 287 286 285 282 280 279 279 279 279 272 268 271
305 299 300 299 297 299 299 296 295 293 291 289 287 286 283 284 282 280 278 278 276 272
306 300 306 305 303 304 303 301 296 291 286 285 284 283 282 281 281 283 281 281 279 277
313 318 315 310 311 298 287 290 294 293 290 287 281 279 273 275 276 272 274 272 270 274
323 323 319 301 295 297 298 295 294 294 295 293 292 292 283 276 276 278 278 276 272 270
326 313 300 303 306 306 307 306 306 306 302 304 303 301 300 298 297 290 284 285 285 282
315 320 321 316 322 319 312 312 313 314 312 314 317 309 304 301 296 297 294 291 290 288
319 320 323 320 311 311 315 317 320 319 319 316 315 310 306 304 300 299 297 295 295 292
318 323 314 318 317 327 333 330 324 321 318 315 310 308 307 304 302 299 296 299 298 291
321 311 317 318 327 331 332 326 319 306 305 311 314 312 317 295 288 299 293 295 301 295
322 325 325 324 335 332 323 318 319 314 315 312 318 308 308 310 301 298 294 293 294 294